Weather in Aksenovo

Russia / Republic of Bashkortostan     53°54′49″N   54°36′08″E
temp.,
°C
wind,
m/s
gust,
m/s
humid.,
%
clouds,
%
prec.,
mm/h
press.,
hPa
HPBL,
m
27 february, sat
sat2723:00−21sse5159994 0.0 1018390
02:00−17sse81694100 0.1 1014553
05:00−15sse101795100 1.4 1009597
08:00−14sse91795100 3.9 1005653
11:00−13sse81494100 4.7 1003531
14:00−9sse71194100 0.6 1001490
17:00−6sse5895100 1.1 1000388
20:00−6sse3597100 0.7 999145
28 february, sun
sun2823:00−3s3898100 1.6 999271
02:00−2ssw4797100 1.1 998315
05:00−3ssw2598100 2.2 998204
08:00−3wnw1198100 1.1 99823
11:00−7n359599 1.4 1000184
14:00−8n469487 0.1 1001266
17:00−9nnw589392 0.2 1004341
20:00−13nnw499499 0.1 1007297
1 march, mon
mon123:00−16nw369698 0.1 1009137
02:00−16nw359698 0.1 1012147
05:00−17nw239696 0.2 1014100
08:00−18nnw349695 0.1 1015109
11:00−16n249394 0.1 1017226
14:00−13nnw238997 0.0 1018368
17:00−14nnw349298 0.1 1019338
20:00−21nnw3310087 0.0 102128
2 march, tue
tue223:00−23nw1210055 0.0 102120
02:00−23w22990 0.0 102120
05:00−23w22990 0.0 102120
08:00−24sw231000 0.0 102023
11:00−19sw489617 0.0 1018227
14:00−17ssw6109572 0.0 1015290
17:00−16ssw7139786 0.0 1013333
20:00−16ssw81595100 0.4 1011432
3 march, wed
wed323:00−15ssw71394100 0.6 1009417
02:00−12s71495100 0.4 1006438
05:00−10s71494100 1.0 1004437
08:00−8s51295100 0.3 1001393
11:00−3ssw5995100 0.6 1000600
14:00−2sw5795100 0.4 1000570
17:00−2wsw459399 0.6 1000493
20:00−4wsw359799 0.5 1000153